TimeMST,TemperatureF,Dew PointF,Humidity,Sea Level PressureIn,VisibilityMPH,Wind Direction,Wind SpeedMPH,Gust SpeedMPH,PrecipitationIn,Events,Conditions,WindDirDegrees,DateUTC
12:53 AM,41.0,23.0,49,30.24,10.0,Calm,Calm,-,N/A,,Clear,0,2012-11-06 07:53:00
1:53 AM,37.9,21.0,51,30.25,10.0,Calm,Calm,-,N/A,,Clear,0,2012-11-06 08:53:00
2:53 AM,37.0,21.0,52,30.25,10.0,West,4.6,-,N/A,,Clear,260,2012-11-06 09:53:00
3:53 AM,34.0,19.0,54,30.25,10.0,WSW,4.6,-,N/A,,Clear,250,2012-11-06 10:53:00
4:53 AM,34.0,19.0,54,30.27,10.0,Calm,Calm,-,N/A,,Clear,0,2012-11-06 11:53:00
5:53 AM,39.0,23.0,53,30.28,10.0,Calm,Calm,-,N/A,,Clear,0,2012-11-06 12:53:00
6:53 AM,34.0,19.0,54,30.32,10.0,SW,3.5,-,N/A,,Clear,230,2012-11-06 13:53:00
7:53 AM,44.1,25.0,47,30.32,10.0,Calm,Calm,-,N/A,,Clear,0,2012-11-06 14:53:00
8:53 AM,48.9,26.1,41,30.32,10.0,Calm,Calm,-,N/A,,Clear,0,2012-11-06 15:53:00
9:53 AM,54.0,27.0,35,30.32,10.0,Calm,Calm,-,N/A,,Clear,0,2012-11-06 16:53:00
10:53 AM,60.1,27.0,28,30.29,-9999.0,North,-9999.0,-,N/A,,Clear,0,2012-11-06 17:53:00
11:53 AM,61.0,27.0,27,30.26,-9999.0,Calm,Calm,-,N/A,,Clear,0,2012-11-06 18:53:00
12:53 PM,63.0,27.0,26,30.22,10.0,NE,4.6,-,N/A,,Clear,50,2012-11-06 19:53:00
1:53 PM,63.0,26.1,25,30.20,10.0,WNW,5.8,-,N/A,,Clear,300,2012-11-06 20:53:00
2:53 PM,64.9,26.1,23,30.19,10.0,NW,5.8,-,N/A,,Clear,320,2012-11-06 21:53:00
3:53 PM,64.9,25.0,22,30.19,10.0,Calm,Calm,-,N/A,,Clear,0,2012-11-06 22:53:00
4:53 PM,62.1,24.1,23,30.19,10.0,NNW,3.5,-,N/A,,Clear,330,2012-11-06 23:53:00
5:53 PM,53.1,21.9,30,30.20,10.0,West,3.5,-,N/A,,Clear,260,2012-11-07 00:53:00
6:53 PM,46.0,19.9,35,30.24,10.0,WSW,3.5,-,N/A,,Clear,250,2012-11-07 01:53:00
7:53 PM,45.0,19.9,37,30.20,10.0,WSW,3.5,-,N/A,,Clear,250,2012-11-07 02:53:00
8:53 PM,45.0,21.9,40,30.19,10.0,West,3.5,-,N/A,,Clear,260,2012-11-07 03:53:00
9:53 PM,44.1,23.0,43,30.18,10.0,SW,3.5,-,N/A,,Clear,230,2012-11-07 04:53:00
10:53 PM,43.0,24.1,47,30.16,10.0,Calm,Calm,-,N/A,,Clear,0,2012-11-07 05:53:00
11:53 PM,37.9,19.9,48,30.18,10.0,Calm,Calm,-,N/A,,Clear,0,2012-11-07 06:53:00